Regional Weather Roundup
Issued by NWS Charleston, SC

Current Version | Previous Version | Graphics & Text | Print | Product List | Glossary On
Versions: 1 2 3 4 5 6 7 8 9 10 11 12 13 14 15 16 17 18 19 20 21 22 23 24 25 26 27 28 29 30 31 32 33 34 35 36 37 38 39 40 41 42 43 44 45 46 47 48 49 50
491
ASUS42 KCHS 301328
RWRCHS

REGIONAL WEATHER ROUNDUP
NATIONAL WEATHER SERVICE CHARLESTON SC
900 AM EDT SAT JUL 30 2016

NOTE: "FAIR" INDICATES FEW OR NO CLOUDS BELOW 12,000 FEET WITH NO
SIGNIFICANT WEATHER AND/OR OBSTRUCTIONS TO VISIBILITY.

NOT ALL STATIONS ARE QUALITY CONTROLLED. USE DATA WITH CAUTION...
ESPECIALLY DEWPOINT OBSERVATIONS.

SCZ027-030-031-034>040-042>050-301400-
...SOUTHEAST SOUTH CAROLINA...

CITY           SKY/WX    TMP DP  RH WIND       PRES   REMARKS
N CHARLESTON   SUNNY     86  73  65 W6        30.01R HX  93
WATERFRONT PRK   N/A     84  75  74 VRB2      29.99R HX  92
MOUNT PLEASANT FAIR      88  75  66 CALM      30.01S HX  97
JOHNS ISLAND   FAIR      90  75  62 CALM      30.01S HX 100
PINOPOLIS        N/A     82  77  83 W6        29.94R HX  91
MONCKS CORNER  FAIR      84  72  65 CALM      30.01R
SUMMERVILLE    FAIR      86  75  70 W3        30.02S HX  95
BEAUFORT MCAS  SUNNY     86  72  62 SW7       30.02R HX  92
BEAUFORT ARPT  FAIR      86  73  66 W6        30.02S HX  93
HILTON HEAD IS SUNNY     88  73  62 W6        30.03R HX  96
WALTERBORO     SUNNY     86  72  62 W5        30.03S HX  92
ALLENDALE      FAIR      86  72  62 CALM      30.02S HX  92

...SOUTHERN MIDLANDS AND PEE DEE...

CITY           SKY/WX    TMP DP  RH WIND       PRES   REMARKS
GEORGETOWN     FAIR      84  77  79 W5        30.01R HX  94
KINGSTREE      FAIR      86  73  66 S3        30.01R HX  93
ORANGEBURG     SUNNY     84  72  67 W6        30.02R
BARNWELL       NOT AVBL
AIKEN          FAIR      82  72  69 SW5       30.06S
MANNING        FAIR      86  72  62 CALM      30.02R HX  92
COLUMBIA       MOSUNNY   84  71  65 SW6       30.01R
SUMTER         SUNNY     83  72  70 SW9       29.99R HAZE
FLORENCE       SUNNY     83  75  77 SW5       30.00R HX  90
MYRTLE BEACH   SUNNY     86  72  62 VRB7      30.00R HX  92
N MYRTLE BEACH SUNNY     86  77  74 NW6       29.98R HX  97

$$

GAZ063-065-086>088-099>101-113>116-118-119-134>141-150-301400-
...SOUTHEAST GEORGIA...

CITY           SKY/WX    TMP DP  RH WIND       PRES   REMARKS
SAVANNAH ARPT  SUNNY     85  71  63 NW5       30.03R HX  90
HUNTER AAF     SUNNY     84  76  76 W5        30.01R HX  92
FORT STEWART   SUNNY     83  72  68 W3        30.02R
STATESBORO     SUNNY     85  76  74 CALM      30.04R HX  94
SYLVANIA       NOT AVBL
CLAXTON        FAIR      85  75  72 SW6       30.04R HX  93

...CSRA...CENTRAL AND FAR SOUTHEAST GEORGIA...

CITY           SKY/WX    TMP DP  RH WIND       PRES   REMARKS
THOMSON        NOT AVBL
AUGUSTA-BUSH   SUNNY     83  71  67 VRB5      30.02R
AUGUSTA-DANIEL SUNNY     83  71  67 VRB3      30.04R
SWAINSBORO     FAIR      82  72  69 W3        30.06R
VIDALIA        SUNNY     86  72  62 W5        30.06R HX  92
EASTMAN        FAIR      84  65  53 W5        30.08R
HAZLEHURST     FAIR      85  76  74 CALM      30.05S HX  95
ALMA           SUNNY     84  73  69 W7        30.05R HX  90
WAYCROSS       SUNNY     87  78  74 NW6       30.06R HX 100
JESUP          FAIR      86  79  79 NW9       30.06R HX  99
BAXLEY         FAIR      86  79  79 NW8       30.05S HX  99
BRUNSWICK      SUNNY     86  77  74 W8        30.06S HX  97
SAINT SIMONS   SUNNY     83  74  74 W8        30.05R

$$

SCZ027-028-034-036>038-045-046-048>050-GAZ119-141-301400-
...LAKE AND SUPPLEMENTAL COASTAL OBSERVATIONS...

STATION/POSITION TIME  TEMP    WIND        PRES    WAVE   SWELL
                       AIR SEA DIR/SP/G            HT/PER HT/PER/DIR
                 (UTC) (F)     (DEG/KT/KT) (MB)    (FT/S) (FT/S/D)
WINYAH BAY       1245   85     300/  7     1015.0R
LAKE MURRAY      1300   82     240/  2/  4 1015.6R
ACE BASIN NERRS  1200   82     280/  2     1016.0R
FORT PULASKI     1300   83 87  290/  9/ 10 1017.3R
SAPELO ISLAND    1300   84     300/  8     1017.0S

$$

ANZ835-935-AMZ111-154-330-350-352-354-370-450-454-472-301400-
...C-MAN AND BUOY OBSERVATIONS...

STATION/POSITION TIME  TEMP    WIND        PRES    WAVE   SWELL
                       AIR SEA DIR/SP/G            HT/PER HT/PER/DIR
                 (UTC) (F)     (DEG/KT/KT) (MB)    (FT/S) (FT/S/D)
BUOY 41004       1250   86 86  260/ 14/ 16 1015.6R   4/ 6   2/150/ 8
BUOY 41008       1250   84 86  270/ 10/ 12 1017.0R   2/ 4   2/110/ 8
FOLLY BEACH CMAN 1300   85     280/  4/  6 1016.3R
CAPERS NEARSHORE 1308   85 85  280/  8/ 10 1016.0R
FRIPP NEARSHORE  1308   84 87  290/ 12/ 14 1016.2R


STATION/POSITION TIME  TEMP    WIND        PRES    WAVE   SWELL
                       AIR SEA DIR/SP/G            HT/PER HT/PER/DIR
                 (UTC) (F)     (DEG/KT/KT) (MB)    (FT/S) (FT/S/D)
5E ST. MARYS GA  1301      85                N/A     1/ 8
FRYING PAN BUOY  1300   85 85  220/ 12/ 14 1015.5R
BUOY 41025       1250   85 86   80/  4/  4 1015.3R   2/ 6   2/210/ 6
CAPE LOOKOUT NC  1300   83     190/  3/  4 1015.1R
BUOY 41002       1250   84 84  210/ 10/ 12 1018.0R   3/ 6   2/220/ 6
BUOY 41010       1220   85 86  210/  8/ 10 1018.1R
ST AUGUSTINE FL  1300   85 84  240/  5/  7 1019.1R


$$




USA.gov is the U.S. government's official web portal to all federal, state and local government web resources and services.